Location: Black Swamp Observatory
(41.3920°N, 84.1250°W)
Time: 02:34:45
(UTC-04:00)

A-11 Canister half - Pass Details

Date: 21 January 2022
Orbit: 1527 x 1682 km, 47.3° (Epoch: 27 May)

Event Time Altitude Azimuth Distance (km) Brightness Sun altitude
Rises 20:48:23 0° 293° (WNW) 4,833 12.5 -35.3°
Reaches altitude 10° 20:52:14 10° 281° (W) 3,868 11.9 -36.0°
Maximum altitude 20:59:34 24° 232° (SW) 2,928 10.7 -37.3°
Drops below altitude 10° 21:07:02 10° 184° (S) 3,923 11.1 -38.7°
Enters shadow 21:08:58 - 177° (S) 4,388 11.3 -39.1°
